Tracking 23099 objects as of 13-May-2021
HD Live streaming from Space Station
objects crossing your sky now

AMC-5 (GE-5)

Track AMC-5 (GE-5) now!
AMC-5 (GE-5) is classified as:


NORAD ID: 25516
Int'l Code: 1998-063B
Perigee: 36,023.7 km
Apogee: 36,095.9 km
Inclination: 7.9 °
Period: 1,449.7 minutes
Semi major axis: 42430 km
RCS: 9.3322 m2 (large)
Launch date: October 28, 1998
Source: SOCIETE EUROPEENNE DES SATELLITES (SES)
Launch site: FRENCH GUIANA (FRGUI)

Broadband internet, business television; 16 Ku-band; CONUS
aabbcc
Your satellite tracking list
Your tracking list is empty




NASA's NSSDC Master Catalog

Two Line Element Set (TLE):
1 25516U 98063B   21132.57703091 -.00000032  00000-0  00000-0 0  9992
2 25516   7.9094  53.0384 0008514 358.7105 292.4339  0.99330207 82331
Source of the keplerian elements: AFSPC